Regional Weather Roundup
Issued by NWS Midland/Odessa, TX

Skip options and go directly to product.
Home | Oldest Version | Next Version | Current Version | All | Text Only | Save Text | Print | Product List | Glossary On

Skip product version selection by date and time.   
581
ASUS44 KMAF 211401
RWRMAF
MIDLAND AREA WEATHER ROUNDUP
NATIONAL WEATHER SERVICE MIDLAND TX
900 AM CDT THU MAY 21 2015

...IN SOUTHWEST TEXAS AND SOUTHEAST NEW MEXICO...

CITY           SKY/WX    TMP DP  RH WIND       PRES   REMARKS
ALPINE         CLOUDY    53  53  99 NE12      30.25S
ANDREWS        DRIZZLE   48  48 100 NE15G21   30.25R
ARTESIA        CLOUDY    52  52 100 E10       30.24S FOG
BIG SPRING     CLOUDY    54  51  90 NE20G28   30.25R
CARLSBAD       CLOUDY    54  52  93 NE10      30.22R FOG
DRYDEN           N/A     63  58  83 NE15      30.14R
FORT STOCKTON  FOG       54  54 100 NE13      30.19R VSB 1/4
GUAD PASS      LGT RAIN  48  32  53 NE43      30.16S VSB 1/4 WCI  38
HOBBS          DRIZZLE   48  48 100 NE15      30.26R FOG
MARFA          CLOUDY    55  54  94 NE15      30.20R
MIDLAND AIRPK  CLOUDY    52  52 100 NE15G22   30.23S
MIDLAND INTL   CLOUDY    52  49  89 NE16      30.22R
ODESSA         CLOUDY    51  48  89 NE17      30.23R
PECOS          CLOUDY    55  53  94 NE10      30.20R FOG
PRESIDIO       FAIR      70  60  70 MISG      30.05S
SEMINOLE       RAIN      48  47  97 NE16G22   30.27R
SNYDER         CLOUDY    49  48  95 NE16G22   30.25S
WINK           CLOUDY    54  49  83 E14       30.20S
$$
...OTHER STATIONS IN TEXAS...

CITY           SKY/WX    TMP DP  RH WIND       PRES   REMARKS
ABILENE        CLOUDY    53  51  93 N16       30.24R FOG
AMARILLO       CLOUDY    46  40  79 NE10      30.33R
AUSTIN         CLOUDY    63  62  97 N22G29    30.12R
BROWNSVILLE    PTSUNNY   82  77  84 SE12      29.99R
CORPUS CHRISTI CLOUDY    80  75  84 N3        30.03R
DALLAS FTW     RAIN      55  54  96 N13       30.20R
DEL RIO        CLOUDY    67  63  87 N9        30.07S
EL PASO        PTSUNNY   64  53  67 E12       30.08R
HOUSTON INT    CLOUDY    79  75  87 W5        30.05R
LUBBOCK        CLOUDY    47  44  90 NE15      30.28S
SAN ANGELO     CLOUDY    56  53  90 NE14      30.19S
SAN ANTONIO    CLOUDY    70  65  84 N10       30.08R
WACO           LGT RAIN  61  56  83 N12G22    30.16R
WICHITA FALLS  NOT AVBL
$$
...OTHER LOCATIONS IN NEW MEXICO...

CITY           SKY/WX    TMP DP  RH WIND       PRES   REMARKS
ALAMAGORDO     PTSUNNY   63  48  59 N14       30.10R
ALBUQUERQUE    PTSUNNY   55  43  63 E24G30    30.17S
CANNON AFB     CLOUDY    45  45 100 E13       30.28S FOG     WCI  38
CLOVIS         CLOUDY    45  41  87 E14       30.31R WCI  38
HOLLOMAN AFB   CLOUDY    61  50  68 CALM      30.09R
ROSWELL        LGT RAIN  52  50  93 E10       30.23S FOG
RUIDOSO        FOG       45  45 100 SE14      30.28S VSB<1/4 WCI  38
SANTA FE       CLOUDY    50  40  68 SE15      30.24S
TRUTH OR CONSE PTSUNNY   60  46  59 NE9       30.11R
TUCUMCARI      CLOUDY    47  45  93 E15       30.28R FOG
$$

USA.gov is the U.S. government's official web portal to all federal, state and local government web resources and services.